This is the latest recevied weather packets stored in our database for station/object OE6ACM-10. If no packets are shown the sender has not sent any weather packets the latest 10 day(s).
| Time | Temp. | Humidity | Pressure | Rain* | Wind** | Luminosity | Snow |
|---|---|---|---|---|---|---|---|
| 1788515545 | 27.22° C | 100% | 930.9 hPa | - | - | - | - |
| 1788515245 | 27.22° C | 100% | 930.9 hPa | - | - | - | - |
| 1788514945 | 27.22° C | 100% | 930.9 hPa | - | - | - | - |
| 1788514645 | 27.22° C | 100% | 931 hPa | - | - | - | - |
| 1788514345 | 26.67° C | 100% | 931.1 hPa | - | - | - | - |
| 1788514045 | 26.67° C | 100% | 931 hPa | - | - | - | - |
| 1788513745 | 26.67° C | 100% | 931 hPa | - | - | - | - |
| 1788513445 | 26.11° C | 100% | 931.2 hPa | - | - | - | - |
| 1788513145 | 26.67° C | 100% | 931.2 hPa | - | - | - | - |
| 1788512845 | 26.67° C | 100% | 931.2 hPa | - | - | - | - |
| 1788512545 | 26.11° C | 100% | 931.2 hPa | - | - | - | - |
| 1788512245 | 26.11° C | 100% | 931.2 hPa | - | - | - | - |
| 1788511945 | 26.11° C | 100% | 931.3 hPa | - | - | - | - |
| 1788511645 | 26.11° C | 100% | 931.3 hPa | - | - | - | - |
| 1788511345 | 25.56° C | 100% | 931.3 hPa | - | - | - | - |
| 1788511045 | 25.56° C | 100% | 931.3 hPa | - | - | - | - |
| 1788510745 | 25° C | 100% | 931.3 hPa | - | - | - | - |
| 1788510445 | 25° C | 100% | 931.2 hPa | - | - | - | - |
| 1788510145 | 24.44° C | 100% | 931.2 hPa | - | - | - | - |
| 1788509845 | 24.44° C | 100% | 931.2 hPa | - | - | - | - |
| 1788509545 | 23.89° C | 100% | 931.2 hPa | - | - | - | - |
| 1788509245 | 23.89° C | 100% | 931.4 hPa | - | - | - | - |
| 1788508945 | 23.33° C | 100% | 931.3 hPa | - | - | - | - |
| 1788508645 | 22.78° C | 100% | 931.4 hPa | - | - | - | - |
| 1788508345 | 22.78° C | 100% | 931.4 hPa | - | - | - | - |
* Rain since midnight (hover to see other rain measurements)
** Current wind speed in m/s (hover to see current wind gust speed)